Regional Weather Roundup
Issued by NWS

Home | Current Version | Previous Version | Text Only | Print | Product List | Glossary On
Versions: 1 2 3 4 5 6 7 8 9 10 11 12 13 14 15 16 17 18 19 20 21 22 23 24 25 26 27 28 29 30 31 32 33 34 35 36 37 38 39 40 41 42 43 44 45 46 47 48 49 50
000
ASUS43 KTOP 202159
RWRKS

WEATHER ROUNDUP FOR KANSAS
NATIONAL WEATHER SERVICE GOODLAND KS
400 PM CST FRI JAN 20 2017

NOTE:  "FAIR" INDICATES FEW OR NO CLOUDS BELOW 12,000 FEET WITH NO
SIGNIFICANT WEATHER AND/OR OBSTRUCTIONS TO VISIBILITY.

KSZ001>006-013>018-027>032-041>047-202300-
NORTHWEST KANSAS

CITY           SKY/WX    TMP DP  RH WIND       PRES   REMARKS
GOODLAND       LGT RAIN  34  34 100 NW13      29.39R FOG     WCI  25
HAYS           CLOUDY    47  38  71 W6        29.38S
HILL CITY      CLOUDY    44  38  79 W7        29.38R
RUSSELL        CLOUDY    47  41  80 CALM      29.36F
$$

KSZ061>065-074>080-084>089-202300-
SOUTHWEST KANSAS

CITY           SKY/WX    TMP DP  RH WIND       PRES   REMARKS
DODGE CITY     CLOUDY    51  38  60 W7        29.38R
ELKHART          N/A     46  27  47 NW17        N/A
GARDEN CITY    PTSUNNY   42  34  73 W15       29.39R
GREAT BEND     CLOUDY    48  42  80 S7        29.39S
LIBERAL        MOSUNNY   50  36  57 NW18G24   29.41R
$$

KSZ066>073-081>083-090>101-202300-
SOUTHEAST KANSAS

CITY           SKY/WX    TMP DP  RH WIND       PRES   REMARKS
CHANUTE        SUNNY     59  46  62 S7        29.43R
COFFEYVILLE    SUNNY     64  40  41 SW20G28   29.43S
HUTCHINSON     CLOUDY    50  45  83 S12       29.41R
MEDICINE LODGE   N/A     48  41  76 S5        29.40F
NEWTON         CLOUDY    49  44  83 S9        29.42R
PARSONS        SUNNY     62  40  44 SW16G24   29.44R
WICHITA INTL   CLOUDY    50  43  77 S15       29.43R
WICHITA JABRA  CLOUDY    51  44  77 S13       29.42R
WICHITA MCCONL CLOUDY    50  43  76 SW13      29.42R
WINFIELD       CLOUDY    46  41  82 SW16      29.47R
$$

KSZ007>012-019>026-033>040-048>060-102>105-202300-
NORTHEAST KANSAS

CITY           SKY/WX    TMP DP  RH WIND       PRES   REMARKS
CONCORDIA      CLOUDY    45  45 100 CALM      29.40F FOG
EMPORIA        CLOUDY    51  47  86 S9        29.42R
LAWRENCE       LGT RAIN  51  49  92 SE6       29.43F FOG
MANHATTAN      CLOUDY    50  46  86 S5        29.41S
OLATHE IND     CLOUDY    52  48  86 SE8       29.43F
OLATHE EXE     CLOUDY    51  47  86 SE8       29.43F
SALINA         CLOUDY    48  46  93 CALM      29.40F
TOPEKA BILLARD LGT RAIN  51  47  86 NE3       29.43R FOG
TOPEKA FORBES  CLOUDY    52  48  86 SE6       29.42R FOG
$$



USA.gov is the U.S. government's official web portal to all federal, state and local government web resources and services.